Location: Góry Miechowskie
(50.3599°N, 20.1803°E)
Time: 02:26:32
(UTC+00:00)

Vanguard 2 - Pass Details

Date: 19 September 2024
Orbit: 552 x 2910 km, 32.9° (Epoch: 09 October)

Event Time Altitude Azimuth Distance (km) Brightness Sun altitude
Rises 01:31:36 0° 212° (SSW) 2,855 - -25.8°
Reaches altitude 10° 01:36:35 10° 162° (SSE) 2,294 - -25.2°
Maximum altitude 01:36:46 10° 160° (SSE) 2,309 - -25.2°
Drops below altitude 10° 01:36:59 10° 158° (SSE) 2,328 - -25.2°
Exits shadow 01:37:22 10° 153° (SSE) 2,373 9.9 -25.1°
Sets 01:43:24 0° 113° (ESE) 3,907 11.6 -24.3°
